Weather in Sutomore

Montenegro     42°08′20″N   19°02′50″E
temp.,
°C
wind,
m/s
gust,
m/s
humid.,
%
clouds,
%
prec.,
mm/h
press.,
hPa
HPBL,
m
11 may, tue
tue1123:00+15nne11740 0.0 101712
02:00+14nne11790 0.0 101712
05:00+13ne22810 0.0 101622
08:00+18ene117063 0.0 1016177
11:00+22s115710 0.0 1015503
14:00+21sw22594 0.0 1014673
17:00+21ssw22610 0.0 1013429
20:00+16s11810 0.0 101327
12 may, wed
wed1223:00+14ese127554 0.0 101225
02:00+14ene227545 0.0 101231
05:00+13ene118298 0.0 101030
08:00+15e2382100 0.2 1010116
11:00+16s2385100 1.4 1010336
14:00+18sse33715 2.3 1010891
17:00+17sw23712 0.2 1010703
20:00+13sse11870 0.2 101029
13 may, thu
thu1323:00+12sw018612 0.1 101117
02:00+12n01862 0.2 101017
05:00+11ene118777 0.0 100933
08:00+14sw227799 0.2 1009389
11:00+15sw466887 0.9 10101155
14:00+15ssw476893 1.9 10101061
17:00+15s5680100 1.8 1010686
20:00+13se2490100 3.1 1010145
14 may, fri
fri1423:00+12ene239538 2.3 1011130
02:00+11ne349755 4.8 1011159
05:00+11ene239643 3.8 1011139
08:00+14sw14715 4.8 1012878
11:00+17s35593 0.5 10131270
14:00+17sw36575 0.8 10141286
17:00+17s3354100 0.0 1013927
20:00+14sse2480100 0.1 101496
15 may, sat
sat1523:00+13se2485100 1.2 1014102
02:00+13sse3592100 2.8 1013279
05:00+13sse3691100 4.0 1011375
08:00+12sse3494100 11.3 1011341
11:00+12ne3494100 16.2 1010335
14:00+12se2497100 57.1 1009387
17:00+12ne0196100 20.6 1011248
20:00+11ne2292100 24.6 1011117